Location: Newark
(34.0635°N, 86.7609°W)
Time: 01:50:46
(UTC+00:00)

N. Korean satellite - Pass Details

Date: 20 December 2019
Orbit: 454 x 507 km, 97.2° (Epoch: 23 January)

Event Time Altitude Azimuth Distance (km) Brightness Sun altitude
Rises 23:51:22 0° 206° (SSW) 2,588 11.0 -14.2°
Reaches altitude 10° 23:54:15 10° 232° (SW) 1,702 10.5 -14.7°
Maximum altitude 23:56:18 14° 266° (W) 1,449 10.1 -15.1°
Drops below altitude 10° 23:58:20 10° 300° (WNW) 1,696 9.9 -15.5°
Sets 00:01:12 0° 326° (NW) 2,572 10.5 -16.1°
